Torna al catalogo

STARLINK-30133

AttivoComunicazioniVLEO
NORAD 56837·PAYLOAD·🇺🇸 United States

Lanciato Jun 4, 2023 da Cape Canaveral Space Force Station

Loading…

Prossimi Passaggi (prossime 24 ore)

TLE

AggiornatoSource: CelesTrak SupGP

Epoca: Sep 15, 2026, 03:01 UTC

1 56837C 23079Q   26258.12618056  .00022927  00000+0  83012-3 0  2588
2 56837  43.0011 116.8173 0001436 268.6674 128.6668 15.27579194    18

Traccia STARLINK-30133 in tempo reale con AllMySat

Download on the App Store